Retour au catalogue

SL-12 DEB

ActifUNKNOWN
NORAD 21725·DEBRIS·🇷🇺 Russia

Lancé Apr 24, 1987 depuis Baikonur Cosmodrome

Loading…

Prochains Passages (prochaines 24 heures)

TLE

FraisSource: Space-Track

Époque: Sep 13, 2026, 20:01 UTC

1 21725U 87036N   26256.83411189  .00056659  00000-0  60848-1 0  9995
2 21725  64.7109 298.1900 0866270 187.8371 170.8321 12.69870323277772

Suivez SL-12 DEB en temps réel avec AllMySat

Download on the App Store